Theta_e
328 327 325 323 324 323 321 321 323 325 326 324 324 323 323 324 326 323 325 325 322 322 321 321 320 319 319 318 318 317 317 317 316 316 316 316 316 316 316 316 316 318 318
328 326 324 324 324 323 323 322 321 324 324 323 323 323 322 321 321 322 323 323 322 322 321 321 320 319 318 317 316 316 315 315 315 315 315 315 315 315 315 315 315 315 317
328 327 326 324 323 324 324 323 321 324 323 323 323 323 323 322 320 319 318 321 321 322 322 321 321 320 319 318 317 316 315 315 314 314 314 314 314 314 315 315 315 315 314
327 326 324 322 321 321 323 321 321 322 322 322 323 323 323 323 321 318 317 317 320 321 322 322 321 320 320 319 318 317 316 314 313 313 313 313 314 314 314 314 314 314 314
326 324 322 321 320 320 317 318 323 322 320 321 322 322 322 322 322 319 316 316 317 319 320 322 321 321 320 319 318 317 316 314 313 311 310 311 312 313 313 313 314 314 314
325 323 321 319 318 319 316 318 322 322 322 321 320 322 322 322 322 321 317 316 316 317 317 319 320 320 320 320 319 317 316 315 313 310 310 309 310 312 312 313 313 312 312
326 324 321 317 317 318 320 320 319 319 319 317 321 319 318 320 323 322 320 317 316 316 316 317 318 319 319 320 319 318 317 316 314 312 310 310 309 311 313 313 312 311 310
326 324 322 319 323 320 321 320 319 319 317 317 319 318 320 320 319 320 321 320 318 316 316 316 317 317 316 317 318 318 319 318 316 314 312 310 311 312 312 312 311 310 310
327 324 321 321 322 317 316 318 318 318 319 318 315 316 319 322 318 319 319 319 320 319 317 316 315 316 316 315 315 316 319 319 318 316 314 313 313 313 312 311 311 310 310
327 327 321 321 321 316 316 315 318 318 316 317 315 314 315 318 318 316 318 321 319 318 318 318 317 316 316 315 315 315 315 316 316 316 315 314 314 311 311 310 310 310 310
329 327 323 324 324 321 315 316 318 319 317 316 315 315 315 315 314 311 315 312 317 320 319 317 317 317 315 315 315 315 314 314 314 314 315 314 313 311 310 310 310 310 309
329 327 326 322 323 322 317 316 317 316 316 316 314 314 314 313 313 312 311 311 312 312 312 314 314 315 314 314 315 315 314 313 313 314 313 312 309 310 310 309 310 310 309
331 329 327 325 323 323 319 317 315 315 315 315 315 314 314 313 311 313 311 311 313 312 314 314 315 313 313 313 313 313 313 313 312 312 313 312 307 305 306 309 309 309 308
331 330 328 327 325 324 321 318 315 315 314 315 315 314 314 313 313 312 313 312 314 313 312 313 314 313 313 313 313 312 312 312 313 312 313 312 306 305 305 305 307 308 308
331 330 328 327 326 325 322 318 317 314 315 315 315 314 314 314 314 314 313 313 313 315 314 312 313 313 313 312 312 311 310 309 309 313 313 311 306 306 305 305 305 305 305
332 331 329 328 325 325 324 319 317 315 315 315 316 315 313 311 312 314 314 314 313 312 314 312 313 312 312 311 310 310 309 309 309 312 314 311 307 306 306 306 306 306 305
332 331 330 329 329 327 323 320 318 317 316 315 315 315 315 313 311 313 313 312 312 312 313 312 313 312 312 311 310 310 309 310 310 309 308 307 306 306 306 306 306 306 306
332 331 332 332 331 329 326 324 320 318 317 316 315 314 314 314 312 312 313 313 312 313 313 313 312 311 311 310 307 307 307 306 303 302 301 301 302 304 306 306 305 306 306
331 331 330 330 330 329 326 324 323 320 319 319 318 316 314 314 313 312 313 311 312 313 313 313 311 310 309 308 306 305 305 303 302 302 301 302 303 303 304 304 304 304 305
331 330 329 329 328 328 327 326 324 321 320 320 320 318 317 316 315 313 313 314 313 313 312 312 311 310 309 309 306 305 304 304 302 302 302 302 303 302 303 305 305 305 305
331 330 329 329 328 328 326 324 322 322 321 321 321 320 320 320 319 317 318 313 313 313 312 311 311 310 309 305 305 305 305 304 302 302 302 301 302 301 303 303 303 303 305
329 329 328 327 329 328 328 327 325 323 321 321 321 321 321 321 320 319 320 316 313 313 311 311 310 308 308 308 309 304 303 303 304 302 303 303 302 302 303 303 303 304 305
325 325 325 325 325 326 325 324 325 325 324 324 323 323 322 321 321 320 318 315 315 312 313 311 310 310 309 310 309 305 305 303 303 303 303 303 303 302 302 301 303 303 303
322 321 322 321 321 321 322 322 323 324 323 322 321 321 321 321 321 319 317 315 312 313 311 310 310 310 310 310 310 310 306 304 304 303 303 303 303 302 302 301 302 303 302
314 316 318 320 320 317 319 320 320 321 322 321 321 320 320 320 319 318 315 313 313 312 310 311 310 310 311 311 311 308 304 303 304 302 303 302 302 302 302 302 302 303 301
314 313 313 312 311 311 314 318 318 317 318 318 319 319 318 319 317 316 314 313 312 310 310 310 311 311 310 309 309 309 307 304 304 304 304 302 302 302 303 302 302 302 301
Wind_Speed
1 1 0 2 6 7 8 11 10 13 12 12 12 13 13 13 13 12 13 12 13 12 13 14 14 14 14 13 14 14 14 15 15 15 15 15 15 15 15 15 14 13 14
4 2 3 4 6 8 5 9 11 12 13 12 12 12 12 12 11 11 12 11 10 11 12 12 12 13 13 13 13 14 14 14 14 13 14 13 13 13 14 14 14 13 13
4 3 3 6 7 7 7 3 12 14 13 13 12 12 12 11 10 10 10 11 12 11 10 10 10 11 11 11 11 11 12 12 12 12 12 11 11 11 11 12 12 13 13
4 4 5 8 8 7 9 10 8 15 14 13 13 14 12 12 11 10 10 10 12 11 9 8 8 8 8 8 7 7 7 8 9 10 10 9 8 8 9 10 11 11 12
4 6 8 8 7 8 9 10 11 12 17 17 14 14 14 14 13 12 12 12 12 13 13 11 10 8 7 6 5 4 3 3 4 7 9 8 7 6 7 9 10 12 12
6 5 6 7 7 9 5 6 10 10 11 16 16 16 15 16 16 16 15 15 15 14 14 13 12 11 9 8 7 6 4 2 0 3 7 9 7 6 8 10 11 13 13
7 6 5 7 8 6 6 8 9 9 9 9 10 13 12 15 18 19 18 18 18 17 17 15 16 15 12 11 9 8 7 6 5 2 4 7 7 6 9 11 12 14 15
9 8 7 8 7 7 7 7 7 7 8 10 5 5 2 7 16 23 22 21 22 21 20 20 19 17 16 15 14 12 10 8 7 7 5 7 7 7 10 11 13 14 14
9 10 10 9 7 7 8 8 8 9 11 10 11 4 2 4 2 12 25 25 26 23 23 22 22 22 20 19 17 17 14 12 11 9 9 9 8 11 13 12 13 13 13
10 10 12 11 8 8 8 10 10 10 9 12 9 12 7 4 3 1 7 13 22 23 23 26 26 25 23 23 22 20 19 17 13 12 11 11 9 11 13 13 13 14 14
12 13 14 13 11 10 10 8 11 10 9 9 12 7 9 7 6 3 2 2 9 15 18 17 19 23 22 23 24 22 20 18 14 14 13 12 10 10 12 12 13 14 14
11 13 16 16 13 12 11 10 10 10 10 10 11 12 9 5 7 5 3 5 4 5 5 9 14 23 21 19 19 16 11 10 13 14 16 15 12 11 11 13 13 13 13
12 12 17 18 17 15 12 12 13 13 12 13 12 11 10 11 8 8 6 4 4 4 3 6 6 6 9 9 9 7 7 12 12 14 17 16 13 10 12 13 12 11 12
11 9 13 18 19 17 16 15 14 14 15 14 13 12 11 8 8 9 5 6 1 2 3 2 4 9 7 6 5 6 10 15 17 16 18 17 14 11 13 15 13 12 13
12 10 11 14 17 19 19 18 17 16 15 14 13 12 13 12 11 9 11 11 8 3 3 5 7 8 6 6 7 8 13 16 18 18 20 18 15 14 14 15 15 14 15
11 11 11 12 13 16 18 18 19 17 18 16 15 13 13 11 13 12 11 11 11 9 3 8 7 7 5 5 6 9 15 17 13 16 17 15 15 15 15 15 17 18 18
13 13 15 16 17 16 18 19 20 19 20 18 17 17 17 15 14 14 14 13 12 11 8 7 9 8 10 10 12 11 10 6 4 4 8 12 15 17 17 20 22 20 19
17 17 17 18 18 19 19 21 23 24 23 22 21 19 20 20 18 18 18 18 16 15 12 10 10 10 9 8 8 5 3 3 6 9 14 16 18 16 16 17 18 17 16
16 16 15 16 18 19 19 20 24 27 26 26 25 23 23 23 21 21 21 20 18 14 14 13 13 10 10 9 10 10 7 6 8 10 12 12 11 12 15 17 18 18 16
17 16 15 14 14 17 20 22 23 27 28 26 26 26 26 25 26 23 21 25 20 16 19 16 11 9 11 12 14 12 9 8 8 8 7 9 10 12 11 11 11 11 10
19 17 16 15 13 14 16 18 19 21 24 26 27 28 29 29 29 27 25 29 24 20 21 17 15 12 13 10 11 12 14 10 7 3 8 9 13 15 10 7 9 10 9
15 15 14 15 15 16 16 15 17 19 21 25 28 30 29 28 29 30 28 30 30 27 24 19 15 12 19 15 12 14 11 6 3 4 7 15 14 14 10 10 10 10 10
10 12 13 14 17 19 20 20 17 17 17 18 21 23 25 27 26 24 24 28 24 24 20 18 18 19 19 14 12 11 14 13 7 7 7 12 13 14 11 11 6 6 6
12 13 14 14 17 20 20 21 18 17 17 18 20 21 23 24 26 21 22 25 26 21 18 18 21 19 16 14 12 14 15 16 11 11 7 4 9 12 12 9 6 1 9
17 18 20 19 18 23 22 16 15 18 20 21 19 19 20 20 22 19 23 25 23 19 16 15 17 17 14 13 12 14 15 11 6 5 5 5 4 9 10 3 1 5 6
14 21 22 20 17 26 26 20 16 15 18 22 20 16 16 16 21 20 26 24 19 19 15 13 14 16 13 13 15 16 16 13 7 3 6 7 4 3 3 5 9 9 6
Wind_Direction
280 277 155 86 146 145 137 132 140 140 138 139 135 129 124 120 120 114 109 106 108 103 101 99 99 97 93 89 86 83 78 73 69 67 65 62 58 52 48 43 41 35 30
240 259 147 142 140 173 167 155 156 157 149 152 152 146 139 133 128 123 126 124 125 122 119 115 110 105 101 98 97 93 87 78 72 66 60 56 54 48 43 38 36 32 29
231 236 195 170 159 155 158 148 170 172 164 166 167 165 159 155 147 143 138 141 141 140 137 129 118 111 107 105 101 98 91 85 77 68 61 55 50 46 40 34 27 28 24
225 230 184 167 162 151 154 174 179 176 181 185 187 181 179 179 174 168 161 155 158 159 162 155 148 138 127 123 117 109 101 87 73 62 52 46 43 36 31 23 12 12 11
221 192 180 178 185 180 178 179 190 192 193 196 204 201 196 196 193 192 188 184 181 181 180 181 181 177 167 157 154 149 139 92 62 46 38 27 24 20 19 11 359 353 350
213 210 202 195 197 190 200 206 197 196 196 200 204 214 211 213 213 211 209 204 202 202 200 194 197 201 198 194 191 188 191 197 269 20 25 22 20 14 12 5 358 359 345
220 229 219 199 191 217 207 190 181 189 191 186 185 218 227 233 232 229 225 225 222 220 218 216 215 215 212 218 222 219 220 224 228 267 347 1 357 351 353 350 348 348 344
228 229 228 215 235 217 191 195 203 200 207 201 182 149 187 240 240 235 234 235 236 234 234 232 230 230 229 227 230 233 236 240 249 259 287 322 328 323 330 335 337 337 339
232 231 223 238 242 223 220 224 228 226 220 213 211 179 136 224 234 231 235 240 244 244 247 247 243 242 240 240 239 242 241 244 248 257 272 287 305 316 316 320 326 328 330
233 247 232 240 244 249 245 243 234 234 223 211 211 219 223 189 187 277 237 246 237 243 248 253 251 249 249 247 244 247 252 250 267 267 263 277 294 314 320 319 318 321 324
248 246 239 238 247 255 260 258 232 236 237 228 222 210 213 220 216 181 256 244 222 236 246 251 252 249 249 251 243 249 259 263 267 274 262 270 285 304 316 314 316 320 321
262 248 235 242 248 253 254 249 247 248 243 240 239 230 220 194 207 192 211 231 224 221 247 271 264 247 249 250 241 248 258 270 259 266 265 272 275 292 310 309 311 313 317
264 264 238 241 249 255 256 251 251 250 245 241 242 238 236 232 230 216 209 213 222 237 245 309 300 231 226 225 202 216 266 274 269 261 262 260 267 288 309 309 302 303 307
267 271 244 243 246 251 247 245 248 249 248 242 240 237 239 234 236 229 224 191 216 257 248 231 164 155 173 207 228 255 266 269 265 262 266 262 263 281 300 311 294 291 295
263 262 254 247 248 246 242 241 247 246 241 240 235 233 242 240 236 240 232 233 205 214 236 211 190 191 198 230 256 255 276 287 277 262 261 258 263 276 286 301 293 293 295
262 255 259 258 256 251 245 242 246 246 243 239 236 236 234 237 230 230 221 221 222 221 222 212 209 205 240 258 302 317 312 292 282 266 258 256 263 273 277 286 288 288 290
277 265 259 252 251 251 248 242 245 248 245 243 240 239 238 236 230 221 216 213 219 221 225 226 223 232 253 268 270 275 273 288 302 273 265 268 275 280 284 285 290 287 287
272 275 265 259 252 249 249 245 243 243 244 244 244 239 242 237 235 234 226 226 228 222 226 233 227 224 232 251 260 242 237 285 310 314 301 292 289 293 289 289 291 294 284
259 267 268 262 254 252 250 247 247 248 248 247 248 246 243 240 242 237 230 228 225 224 235 225 218 218 230 247 253 248 251 279 310 317 305 304 307 301 292 289 289 283 282
259 258 265 267 262 259 256 254 252 249 249 252 255 254 253 247 247 242 243 236 215 231 221 218 216 223 239 253 247 237 252 264 303 328 331 334 317 321 315 302 303 299 289
264 261 262 264 272 271 265 258 255 257 256 253 260 263 264 262 261 248 242 236 222 226 217 208 226 233 243 234 226 240 241 252 280 302 312 321 333 336 318 311 315 311 297
290 280 280 283 275 273 279 271 262 258 257 261 266 273 273 269 266 259 260 244 234 216 212 218 225 223 231 233 251 239 232 244 260 280 305 311 318 329 324 323 321 322 308
308 306 299 293 292 289 289 281 260 253 259 265 273 278 277 274 270 267 259 242 234 210 232 231 227 234 238 244 257 234 237 238 247 278 279 298 312 314 317 314 314 335 352
332 325 318 313 311 308 305 298 278 256 254 261 269 274 276 275 272 261 242 228 208 224 228 230 240 241 249 259 241 249 247 233 250 264 266 260 314 317 324 317 260 310 344
359 338 327 320 315 322 315 307 291 270 260 265 269 278 272 272 267 256 229 210 216 224 218 226 243 250 256 255 247 232 224 212 236 253 245 241 278 310 325 353 358 279 310
311 304 314 319 325 323 320 295 283 280 271 274 280 276 271 286 270 249 216 209 209 219 222 231 244 242 242 257 243 237 232 215 217 264 263 205 243 282 306 289 299 306 302